Location: Calimesa Mobile Home Ranch
(33.9736°N, 117.0370°W)
Time: 15:45:53
(UTC+00:00)

ACS3 Solar Sail - Visible Passes

Search period start: 23 July 2024 00:00
Search period end: 02 August 2024 00:00
Orbit: 993 x 1022 km, 97.4° (Epoch: 23 July)

Date Brightness Start Highest point End Pass type
(mag) Time Alt. Az. Time Alt. Az. Time Alt. Az.
23 Jul 5.6 04:07:56 19° ESE 04:11:35 34° ENE 04:17:05 10° N visible
23 Jul 6.1 05:53:17 25° SW 05:55:35 32° W 06:01:04 10° NNW visible
24 Jul 4.8 04:42:46 32° SSE 04:45:47 67° ENE 04:51:59 10° N visible
24 Jul 7.0 06:28:06 13° WSW 06:30:20 15° W 06:33:45 10° WNW visible
25 Jul 6.4 03:32:45 10° ESE 03:36:41 18° ENE 03:40:38 10° NNE visible
25 Jul 5.1 05:17:36 36° SSW 05:20:10 62° W 05:26:22 10° NNW visible
26 Jul 5.6 04:07:05 19° ESE 04:10:42 35° ENE 04:16:16 10° N visible
26 Jul 6.2 05:52:26 24° SW 05:54:44 31° W 06:00:10 10° NW visible
27 Jul 4.8 04:41:55 32° SSE 04:44:54 69° ENE 04:51:08 10° N visible
27 Jul 7.0 06:27:16 12° WSW 06:29:29 14° W 06:32:43 10° WNW visible
28 Jul 6.4 03:31:44 10° ESE 03:35:47 18° ENE 03:39:52 10° NNE visible
28 Jul 5.2 05:16:46 35° SSW 05:19:18 60° W 05:25:29 10° NNW visible
29 Jul 5.5 04:06:15 20° ESE 04:09:49 36° ENE 04:15:26 10° N visible
29 Jul 6.3 05:51:36 24° SW 05:53:52 30° W 05:59:14 10° NW visible
30 Jul 4.8 04:41:05 33° SSE 04:44:01 72° ENE 04:50:17 10° N visible
30 Jul 7.1 06:26:26 12° WSW 06:28:38 14° W 06:31:41 10° WNW visible
31 Jul 6.3 03:30:43 10° ESE 03:34:54 19° ENE 03:39:05 10° NNE visible
31 Jul 5.2 05:15:56 35° SSW 05:18:26 58° W 05:24:36 10° NNW visible
01 Aug 5.5 04:05:26 21° SE 04:08:55 37° ENE 04:14:36 10° N visible
01 Aug 6.3 05:50:46 23° SW 05:53:00 29° W 05:58:19 10° NW visible
